Tracking 31027 objects as of 19-Jul-2025
HD Live streaming from Space Station
objects crossing your sky now

STARLINK-5915

Track STARLINK-5915 now!
10-day predictions
STARLINK-5915 is classified as:


NORAD ID: 55987
Int'l Code: 2023-042B
Perigee: 565.3 km
Apogee: 567.1 km
Inclination: 43.0 °
Period: 95.8 minutes
Semi major axis: 6937 km
RCS: Unknown
Launch date: March 24, 2022
Source: United States (US)
Launch site: AIR FORCE EASTERN TEST RANGE (AFETR)
Your satellite tracking list
GALASSIA
Track 1 satellite(s)




NASA's NSSDC Master Catalog

Two Line Element Set (TLE):
1 55987U 23042B   25199.85211000  .00000019  00000-0  16500-4 0  9994
2 55987  43.0023 246.8516 0001266 274.0754  85.9943 15.02534252127731
Source of the keplerian elements: AFSPC